星链-6052 (STARLINK-6052 )

导读 | 豆包AI

STARLINK-6052是美国SpaceX公司星链星座的一员,于2023年5月31日发射升空。星链旨在构建全球低轨宽带互联网星座,为全球偏远地区、海洋与航空等场景提供高速互联网接入服务。该卫星属于星链大规模扩张阶段产物,运行在近550公里低地球轨道,依托星座的相控阵天线、星间激光链路技术,可提供低延迟高带宽网络服务,是当前全球最大卫星星座的组成部分。

基本信息
目录编号:
56793
目录名称:
STARLINK-6052
国际标识:
2023-078AC
轨道中心:
EARTH
卫星名称:
星链-6052
卫星全名:
星链-6052 (STARLINK-6052 )
卫星状态:
在轨 (已飞行1019 天)
发射日期:
2023-05-31 UTC
国别 :
美国 (US)
星等 :
--
轨道信息
数据来源 国际轨道数据
星历时间: 2026-03-15T09:16:41+0800
18小时前
查看轨道信息
半长轴: 6950.193km
偏心率: 0.0002601
轨道倾角: 70.000°
近地点辐角 270.949°
升交点赤经 330.935°
平近点角 89.137°
近地点: 570.248km
远地点: 573.864km
周期: 96.107分钟
每日圈数: 14.983302
详细信息
固有亮度:
5
最大亮度:
2.5
卫星平台:
Starlink v1.5
覆盖范围:
全球
运营商:
太空探索技术公司
运营商所在国:
美国
制造商(研发单位):
太空探索技术公司
制造商所在国:
美国
使用方式:
暂无
卫星简介
星链(Starlink)计划是由太空探索技术公司(SpaceX)提出的一个巨型低轨卫星互联网星座项目,计划在2019年至2024年间在太空搭建由约1.2万颗卫星组成的“星链”网络,其中1584颗将部署在地球上空550千米处的近地轨道,并从2020年开始工作。该卫星仍在工作。
2D轨道图
3D轨道图
轨道高度分析图
轨道倾角分析图
轨道综合分析图
查看轨道综合分析图